Simultaneous Nadir Overpasses (SNOs) Predictions

Prediction of SNOs between AQUA and NOAA-19 Satellite Orbit:

Table of predicted SNOs for the next 14.0 days since TLE Epoch: 7/17/2021
Index Date (AQUA) Time (AQUA) Lat,Lon (AQUA) SZA (AQUA ) Date (NOAA-19) Time (NOAA-19) Lat,Lon (NOAA-19) SZA (NOAA-19 ) Distance(km) Time Diff (sec)
1 07/17/2021 14:30:38 78.69, -59.67 58.58 07/17/2021 14:30:35 78.69, -59.72 58.58 1.09 3
2 07/19/2021 20:04:22 -78.69, 36.89 121.02 07/19/2021 20:03:49 -78.66, 36.84 121.03 3.98 33
3 07/19/2021 20:53:50 78.72,-155.62 59.03 07/19/2021 20:54:43 78.70,-155.60 58.99 2.49 53
4 07/22/2021 01:38:07 78.67, 133.56 59.39 07/22/2021 01:36:54 78.59, 133.20 59.37 12.06 73
5 07/22/2021 02:27:33 -78.68, -58.84 120.60 07/22/2021 02:27:57 -78.68, -58.96 120.60 2.79 24
6 07/24/2021 08:01:18 78.67, 37.81 59.84 07/24/2021 08:01:00 78.67, 37.78 59.85 0.72 18
7 07/24/2021 08:50:51 -78.96,-156.20 119.75 07/24/2021 08:51:56 -79.00,-152.53 120.04 78.09 65
8 07/26/2021 13:35:02 -78.67, 134.37 119.68 07/26/2021 13:34:14 -78.66, 134.54 119.67 3.67 48
9 07/26/2021 14:24:30 78.70, -58.18 60.38 07/26/2021 14:25:08 78.67, -58.13 60.34 3.34 38
10 07/28/2021 19:58:13 -78.66, 38.60 119.17 07/28/2021 19:58:22 -78.67, 38.66 119.16 1.95 9
11 07/31/2021 01:31:58 78.66, 135.17 61.37 07/31/2021 01:31:25 78.64, 135.22 61.36 2.85 33



Historial Predications of SNOs between AQUA and NOAA-19
